Regional Weather Roundup
Issued by NWS State College, PA

Home | Current Version | Previous Version | Graphics & Text | Print | Product List | Glossary On
Versions: 1 2 3 4 5 6 7 8 9 10 11 12 13 14 15 16 17 18 19 20 21 22 23 24 25 26 27 28 29 30 31 32 33 34 35 36 37 38 39 40 41 42 43 44 45 46 47 48 49 50
000
ASUS41 KCTP 231410
RWRCTP

REGIONAL WEATHER ROUNDUP
NATIONAL WEATHER SERVICE STATE COLLEGE PA
1000 AM EDT WED APR 23 2014

Note: "fair" indicates few or no clouds below 12,000 feet with no
significant weather and/or obstructions to visibility.

* = STATION THAT DOES NOT REPORT PRECIPITATION /E.G. RAIN...SNOW...ETC/
    THUNDER OR FOG.

PAZ002>004-007>009-013>016-020>023-029>032-231500-
WESTERN PENNSYLVANIA

CITY           SKY/WX    TMP DP  RH WIND       PRES   REMARKS
ERIE           CLOUDY    37  32  82 W10       29.97R
MEADVILLE      CLOUDY    34  31  88 NW13G28   29.93R
FRANKLIN*      CLOUDY    34  28  80 NW9G16    29.95R
NEW CASTLE     CLOUDY    38  32  79 NW14G20   29.99R
BEAVER COUNTY  CLOUDY    37  32  81 NW8G17    29.96R
BUTLER*        CLOUDY    39  30  70 W7G18     29.96R
PITTSBURGH INT CLOUDY    40  32  73 NW20      29.96R
PITTSBURGH     CLOUDY    42  30  62 NW12G21   29.94R
INDIANA*       CLOUDY    37  34  87 NW8G17    29.92R
LATROBE        CLOUDY    39  34  81 NW12      29.95R
WASHINGTON CO* CLOUDY    41  28  60 NW7G18    29.99S
$$

PAZ004>006-010>012-017>019-024>028-033>037-041-042-045-046-049>053-231500-
CENTRAL PENNSYLVANIA

CITY           SKY/WX    TMP DP  RH WIND       PRES   REMARKS
BRADFORD       LGT SNOW  34  29  82 NW17      29.83R
DUBOIS         LGT SNOW  36  33  89 W14G20    29.86R FOG
CLEARFIELD     CLOUDY    39  31  72 W18G31    29.85R
JOHNSTOWN      CLOUDY    34  30  85 W20G26    29.85R
ALTOONA        CLOUDY    43  33  68 NW15G26   29.85R
STATE COLLEGE  PTSUNNY   41  32  70 NW14G23   29.82R
WILLIAMSPORT   CLOUDY    48  32  53 NW15G24   29.76R
SELINSGROVE    CLOUDY    48  33  56 NW10G20   29.78R
FT INDIANTOWN  CLOUDY    47  33  57 W10G31    29.76R
CAPITAL CITY   CLOUDY    49  33  54 NW21G30   29.78R
HARRISBURG     CLOUDY    49  33  54 NW17G30   29.77R
YORK           PTSUNNY   48  34  58 NW16G25   29.78S
$$

PAZ038>040-043-044-047-048-054-055-060>062-067>071-231500-
EASTERN PENNSYLVANIA

CITY           SKY/WX    TMP DP  RH WIND       PRES   REMARKS
SCRANTON       CLOUDY    42  34  73 NW17G23   29.70R
MOUNT POCONO   CLOUDY    40  34  79 NW22G33   29.62S
ALLENTOWN      CLOUDY    49  34  56 W15G28    29.68R
QUAKERTOWN*    PTSUNNY   46  34  61 W13G21    29.70R
READING        CLOUDY    48  33  56 NW18G29   29.72R
LANCASTER      PTSUNNY   49  33  54 NW23G32   29.74R
COATESVILLE    CLOUDY    46  32  57 NW24      29.73S
POTTSTOWN      CLOUDY    47  34  60 W12G24    29.71S
BLUE BELL      CLOUDY    50  34  53 NW14G22   29.69R
DOYLESTOWN     CLOUDY    47  35  63 NW18G24   29.68R
WILLOW GROVE   NOT AVBL
NORTH PHILA    CLOUDY    52  33  48 NW17G32   29.70R
PHILADELPHIA   PTSUNNY   52  30  43 NW21G28   29.71R
$$



USA.gov is the U.S. government's official web portal to all federal, state and local government web resources and services.